RADUGA 2 (9416 NORAD) Tracking and Keplerian Element Data

This shows tracking and keplerian element data for the satellite.

Feedback or suggestion? Click here.




ElementValue
Catalog9416
NameRADUGA 2
Epoch Orbit12434
Epoch Day34.70060243
Epoch Year2025
RAAN277.1089
Inclination4.7648
Eccentricity0.0029518
Argument of Perigee24.5165
Mean Anonmoly170.4022
Mean Motion1.00280996
Decay Rate-1.85E-06
L11 09416U 76092A 25034.70060243 -.00000185 00000+0 00000+0 0 9993
L22 09416 4.7648 277.1089 0029518 24.5165 170.4022 1.00280996124348



Live tracking and technical data element details for RADUGA 2 (NORAD 9416). RADUGA 2 can be tracked NOW for your location showing map with azimuth and elevation plus other details from your city location.







IsCatalogInMostPopularTable: catalog: 9416, numindb: 355
Update: records affected: 1



GetName: 9416 RADUGA 2

Hit Count: updated at: Sat, 24 May 2025 17:04:16 GMT